loading
|

ONEWEB-0090, 45427

Orbit data source: Space-Track

ONEWEB-0090, 45427 is a payload satellite owned by One Web (UK) in LEO that was launched on Sat, 21 Mar 2020 UTC via a SOYUZ-2-1B launch vehicle from the Tyuratam Missile And Space Complex (TTMTR). Payloads include a variety of satellites, spacecraft, and rockets equipped with specific instruments for various scientific and technological missions. These include communications satellites like Starlink; space stations such as the ISS; scientific satellites like the Hubble; Earth observation satellites from companies like Planet Labs, Umbra, and HawkEye 360; GPS; miniature CubeSats for education and research; and military/defense satellites.

Loading next visibility...
Loading greatness...
ONEWEB-0090 details
Identifier
45427, 2020-020D
Orbit
LEO
Last TLE update10 hours ago
Origin
Flag of UKOne Web (UK)
ManufacturerOne Web
MissionOperational Commercial Communications
Bus & MotorARROW, Unknown motor
Mass148 kg wet, ~140 kg dry
Launch date (UTC)
2020-03-21 (5 years ago)
Launch vehicle
SOYUZ-2-1B
Launch site
Tyuratam Missile And Space Complex (TTMTR)
Object type
Payload
Rocket body
Debris
Shape & HBRTrap Box + 2 Pan, 5 m
Radar Cross Section2.957 m², Large (>1 m²)

Expand to show TLE details & history

TLE from 10 hours ago
0 ONEWEB-0090
1 45427U 20020D   24279.53044538  .00000389  00000-0  10618-2 0  9990
2 45427  87.8942 144.4854 0001633  76.7125 283.4185 13.11420479221450
Epoch: 2024-10-05T12:43Z
Definitive object data (Epoch: 2024-10-05T12:43:50.48Z)
Latitude-0.00004°
Longitude-61.16037°
Altitude1,220.271 km
Speed7.244 km/s
True Right ascension09h 37m 56s
True Declination0° 00' 00"
Sunlit
Object was in daylight at TLE epoch
Predictive object data (real-time)
Latitude55.24702°
Longitude115.73613°
Altitude1,226.066 km
Speed7.247 km/s
Apparent Right ascension01h 16m 41s
Apparent Declination21° 11' 35"
Sunlit
Object is in daylight
Predictive observer data (real-time)
Local Sidereal Time16:31:05
Azimuth46.105° ENE
Elevation-13.942°
Doppler factor1
Orbital elements
Apogee1,216.027 km
Perigee1,213.547 km
Semi-major axis7,592.924 km
Eccentricity0.0001633
Inclination87.8942°
RAAN144.4854°
Arg. of periapsis76.7125°
True anomaly283.4003°
Mean anomaly283.4185°
Eccentric anomaly283.4094°
Mean motion3.28042 °/min
BSTAR0.0010618
Period109.74 mins
No data available

ONEWEB-0090 Visibility forecast

Observer location: 39.9160978°, -105.1181434

ONEWEB-0090 is not visible in the next 10 days
Span
Click to sort rows by Start time (UTC) header in descending order
Start Az.
Max El. time (UTC)
Max El. Az.
Max El.
End time (UTC)
End Az.